User: anonymous
Location: Montr�al
(45.5000°N, 73.5830°W)
Time: 21:35:50
(UTC-04:00)
Language:

Cosmos 2369 - Orbit

View from above orbital plane
View from above orbital plane
View from above satellite
View from above satellite

Ground track
Ground track

The orbit data is extracted from the following two-line orbital elements,

1 26069U 00006A   14294.17778679  .00000507  00000-0  29563-3 0  3805
2 26069 070.9958 230.9759 0012745 260.6968 198.1941 14.13245175759078
Epoch (UTC): 21 October 2014 04:16:00
Eccentricity: 0.0012745
inclination: 70.9958°
perigee height: 839 km
apogee height: 857 km
right ascension of ascending node: 230.9759°
argument of perigee: 260.6968°
revolutions per day: 14.13245175
mean anomaly at epoch: 198.1941°
orbit number at epoch: 75907

The dashed part of the orbit path shows where the satellite is in the earth's shadow,  

DLR